Regional Weather Roundup
Issued by NWS

Home | Current Version | Previous Version | Graphics & Text | Print | Product List | Glossary On
Versions: 1 2 3 4 5 6 7 8 9 10 11 12 13 14 15 16 17 18 19 20 21 22 23 24 25 26 27 28 29 30 31 32 33 34 35 36 37 38 39 40 41 42 43 44 45 46 47 48 49 50
000
ASUS43 KLOT 020300
RWRIL

ILLINOIS REGIONAL WEATHER ROUNDUP
NATIONAL WEATHER SERVICE CHICAGO/ROMEOVILLE IL
1000 PM CDT TUE SEP 01 2015

NOTE: "FAIR" INDICATES FEW OR NO CLOUDS BELOW 12,000 FEET WITH NO
SIGNIFICANT WEATHER AND/OR OBSTRUCTIONS TO VISIBILITY.

* THESE STATIONS ARE NOT UNDER NWS QUALITY CONTROL. THEY ALSO MAY NOT
  REPORT WEATHER SUCH AS PRECIPITATION OR FOG.

ILZ001-002-007-009-015-016-024-020400-
NORTHWEST ILLINOIS

CITY           SKY/WX    TMP DP  RH WIND       PRES   REMARKS
MOLINE         PTCLDY    79  69  71 S7        30.01R HX  81
STERLING*      CLEAR     79  72  78 CALM      30.01R HX  82
$$

ILZ003-004-008-010-011-017-018-020400-
NORTH CENTRAL ILLINOIS

CITY           SKY/WX    TMP DP  RH WIND       PRES   REMARKS
ROCKFORD       PTCLDY    74  70  87 S6        30.03R
$$

ILZ005-006-012>014-019>023-020400-
NORTHEAST ILLINOIS

CITY           SKY/WX    TMP DP  RH WIND       PRES   REMARKS
CHICAGO-OHARE  PTCLDY    80  73  79 S10       30.02R HX  84
CHICAGO-MIDWAY PTCLDY    82  72  71 S10G21    30.03R HX  87
AURORA         CLEAR     78  73  84 S8        30.04R HX  81
WAUKEGAN       CLEAR     78  72  81 S9        30.01R HX  80
DUPAGE AIRPORT CLEAR     79  72  79 S10       30.03R HX  82
WHEELING       CLEAR     81  71  71 S9        30.03R HX  85
NORTHERLY ISL    N/A     80  70  71 S14         N/A  HX  83
$$

LMZ740>746-020400-
SOUTHERN LAKE MICHIGAN

STATION/POSITION SKY/WX   TEMP    WIND        PRES    VSBY  WAVE
                          AIR SEA DIR/SP/G                  HT/PER
                          (F)     (DEG/KT/KT) (MB)    (MI)  (FT/S)
SOUTHERN BUOY              74 70  190/ 12/ 14 1015.8R         1/ 4
WILMETTE HARBOR            69 59  340/  6/  8   N/A           1
HARRISON CRIB              77     180/ 16/ 18   N/A
BURNHAM HARBOR             80     200/  9/ 14   N/A
CALUMET HARBOR             80     180/  9/ 12   N/A
BURNS HARBOR               78     190/ 12/ 16 1017.6R
MICHIGAN CITY              78     170/ 14/ 16   N/A
MICHIGAN CITY 6N           77 73  210/ 10/ 12   N/A           1
ST. JOSEPH                 76 73  220/  8/  8   N/A           1
$$

ILZ025>027-034>036-040-047-049-050-058-095>099-020400-
WEST-CENTRAL ILLINOIS

CITY           SKY/WX    TMP DP  RH WIND       PRES   REMARKS
QUINCY         CLEAR     78  69  73 S6        30.05R HX  80
$$

ILZ028>032-037-038-041>044-048-051>054-059>061-020400-
CENTRAL ILLINOIS

CITY           SKY/WX    TMP DP  RH WIND       PRES   REMARKS
DECATUR        MOCLDY    76  70  82 E3        30.09R
PEORIA         CLEAR     80  68  66 S6        30.05R HX  83
SPRINGFIELD    PTCLDY    77  70  79 S7        30.07R
TAYLORVILLE    NOT AVBL
$$

ILZ033-039-045-046-055>057-062-063-020400-
EAST-CENTRAL ILLINOIS

CITY           SKY/WX    TMP DP  RH WIND       PRES   REMARKS
CHAMPAIGN      MOCLDY    72  71  97 E3        30.10R
MATTOON        MOCLDY    75  67  76 S5        30.09S
$$

ILZ079-100>102-020400-
SOUTHWEST ILLINOIS

CITY           SKY/WX    TMP DP  RH WIND       PRES   REMARKS
ALTON          CLEAR     75  70  83 SE6       30.07S
BELLEVILLE     CLEAR     76  74  92 SE1       30.08R
CAHOKIA*       CLEAR     78  70  76 S3        30.08R HX  80
$$

ILZ064>066-069>071-074>076-080>082-084>086-088>090-092>094-020400-
SOUTH-CENTRAL ILLINOIS

CITY           SKY/WX    TMP DP  RH WIND       PRES   REMARKS
CARBONDALE     CLEAR     73  70  90 CALM      30.10R
MT. VERNON     CLEAR     72  64  78 CALM      30.11S
$$

ILZ067-068-072-073-078-083-087-091-020400-
SOUTHEAST ILLINOIS

CITY           SKY/WX    TMP DP  RH WIND       PRES   REMARKS
LAWRENCEVILLE  CLEAR     72  69  90 CALM      30.10S
$$

ABBREVIATIONS USED IN REMARKS
   TC - TEMPERATURE IN CELSIUS
  WCI - WIND CHILL INDEX
   HX - HEAT INDEX
  VSB - VISIBILITY
$$




USA.gov is the U.S. government's official web portal to all federal, state and local government web resources and services.